{"data":{"norad_id":43256,"epoch":"2026-09-20T04:54:35.147808Z","epoch_age_seconds":40996,"freshness":"FRESH","line1":"1 43256U 18030H   26263.20457347  .00000011  00000+0 -29609-5 0  9996","line2":"2 43256  86.3912 250.5994 0002010  88.6635 271.4791 14.34217465443755","mean_motion":14.34217465,"eccentricity":0.000201,"inclination_deg":86.3912,"raan_deg":250.5994,"arg_perigee_deg":88.6635,"mean_anomaly_deg":271.4791,"bstar":-2.9609e-6,"rev_number":44375,"period_min":100.40318397601,"perigee_km":776.22978550323,"apogee_km":779.10641915436,"semimajor_km":7155.8051023288,"source":"CELESTRAK","updated_at":"2026-09-20T09:00:36.330036Z"}}